| time (UTC) | temp C | wind direction | speed KPH | gust KPH | rain 1hr cm | rain 24hr cm | rain mn cm | humidity % | barometer mb |
| 20260509023041 | 11 | 360 | 1.6 | 4.8 | 0.00 | 0.30 | 0.18 | 91 | 979.2 |
| 20260509021541 | 12 | 360 | 3.2 | 4.8 | 0.00 | 0.30 | 0.18 | 91 | 979.3 |
| 20260509020041 | 12 | 360 | 1.6 | 4.8 | 0.00 | 0.30 | 0.18 | 91 | 979.3 |
| 20260509014541 | 12 | 360 | 3.2 | 6.4 | 0.00 | 0.36 | 0.18 | 90 | 979.2 |
| 20260509013051 | 12 | 360 | 1.6 | 4.8 | 0.00 | 0.36 | 0.18 | 90 | 979.1 |
| 20260509011540 | 12 | 360 | 4.8 | 9.7 | 0.00 | 0.36 | 0.18 | 89 | 979.1 |
| 20260509010039 | 12 | 360 | 3.2 | 8.0 | 0.00 | 0.36 | 0.18 | 89 | 978.9 |
| 20260509004541 | 13 | 360 | 6.4 | 16.1 | 0.00 | 0.36 | 0.18 | 88 | 978.8 |
| 20260509003039 | 13 | 360 | 9.7 | 17.7 | 0.00 | 0.36 | 0.18 | 87 | 978.8 |
| 20260509001548 | 13 | 360 | 9.7 | 16.1 | 0.00 | 0.36 | 0.18 | 85 | 978.8 |
| 20260509000036 | 13 | 360 | 14.5 | 20.9 | 0.00 | 0.36 | 0.18 | 84 | 978.8 |
| 20260508234535 | 14 | 360 | 6.4 | 17.7 | 0.00 | 0.36 | 0.18 | 85 | 978.8 |
| 20260508233035 | 13 | 360 | 8.0 | 19.3 | 0.00 | 0.36 | 0.18 | 86 | 978.9 |
| 20260508231535 | 14 | 360 | 11.3 | 19.3 | 0.00 | 0.36 | 0.18 | 85 | 979.0 |
| 20260508230035 | 14 | 360 | 9.7 | 22.5 | 0.00 | 0.36 | 0.18 | 85 | 979.2 |
| 20260508224541 | 14 | 360 | 12.9 | 19.3 | 0.00 | 0.36 | 0.18 | 86 | 979.1 |
| 20260508223044 | 14 | 360 | 11.3 | 24.1 | 0.00 | 0.36 | 0.18 | 86 | 979.1 |
| 20260508221531 | 13 | 360 | 12.9 | 20.9 | 0.00 | 0.36 | 0.18 | 84 | 979.2 |
| 20260508220031 | 14 | 360 | 11.3 | 20.9 | 0.00 | 0.36 | 0.18 | 82 | 979.3 |
| 20260508214549 | 14 | 360 | 14.5 | 24.1 | 0.00 | 0.36 | 0.18 | 84 | 979.3 |
| 20260508213028 | 14 | 360 | 14.5 | 27.4 | 0.00 | 0.36 | 0.18 | 84 | 979.2 |
| 20260508211528 | 13 | 360 | 19.3 | 24.1 | 0.08 | 0.36 | 0.18 | 84 | 979.2 |
| 20260508210026 | 13 | 360 | 12.9 | 20.9 | 0.10 | 0.36 | 0.18 | 83 | 979.4 |
| 20260508204525 | 13 | 360 | 11.3 | 17.7 | 0.10 | 0.36 | 0.18 | 84 | 979.5 |
| 20260508203023 | 13 | 360 | 12.9 | 22.5 | 0.10 | 0.36 | 0.18 | 82 | 979.8 |
| 20260508201522 | 14 | 360 | 4.8 | 9.7 | 0.03 | 0.28 | 0.10 | 78 | 980.0 |
| 20260508200023 | 15 | 360 | 1.6 | 4.8 | 0.00 | 0.25 | 0.08 | 73 | 980.0 |
| 20260508194518 | 15 | 360 | 0.0 | 3.2 | 0.00 | 0.25 | 0.08 | 73 | 980.2 |
| 20260508193017 | 15 | 360 | 1.6 | 8.0 | 0.00 | 0.25 | 0.08 | 73 | 980.3 |
| 20260508191517 | 15 | 360 | 0.0 | 6.4 | 0.00 | 0.25 | 0.08 | 74 | 980.5 |
| 20260508190024 | 14 | 360 | 0.0 | 8.0 | 0.00 | 0.25 | 0.08 | 75 | 980.5 |
| 20260508184522 | 14 | 360 | 6.4 | 12.9 | 0.00 | 0.25 | 0.08 | 75 | 980.9 |
| 20260508183021 | 14 | 360 | 3.2 | 8.0 | 0.00 | 0.25 | 0.08 | 76 | 980.9 |
| 20260508181508 | 14 | 360 | 3.2 | 9.7 | 0.00 | 0.25 | 0.08 | 77 | 981.1 |
| 20260508180005 | 13 | 360 | 1.6 | 8.0 | 0.00 | 0.25 | 0.08 | 79 | 981.3 |
| 20260508174503 | 13 | 360 | 6.4 | 12.9 | 0.00 | 0.25 | 0.08 | 81 | 981.5 |
| 20260508173059 | 13 | 360 | 6.4 | 14.5 | 0.00 | 0.25 | 0.08 | 83 | 981.7 |
| 20260508171603 | 12 | 360 | 4.8 | 12.9 | 0.00 | 0.25 | 0.08 | 82 | 982.0 |
| 20260508170106 | 12 | 360 | 6.4 | 12.9 | 0.00 | 0.25 | 0.08 | 82 | 982.3 |
| 20260508164559 | 12 | 360 | 6.4 | 14.5 | 0.00 | 0.25 | 0.08 | 83 | 982.5 |
| 20260508163054 | 11 | 360 | 6.4 | 16.1 | 0.00 | 0.25 | 0.08 | 84 | 982.7 |
| 20260508161602 | 12 | 360 | 14.5 | 19.3 | 0.00 | 0.25 | 0.08 | 83 | 982.9 |
| 20260508160054 | 12 | 360 | 11.3 | 20.9 | 0.00 | 0.25 | 0.08 | 83 | 982.7 |
| 20260508154552 | 12 | 360 | 8.0 | 17.7 | 0.00 | 0.25 | 0.08 | 85 | 982.5 |
| 20260508153055 | 11 | 360 | 8.0 | 17.7 | 0.00 | 0.25 | 0.08 | 86 | 982.7 |
| 20260508151549 | 11 | 360 | 11.3 | 17.7 | 0.03 | 0.25 | 0.08 | 87 | 982.7 |
| 20260508150045 | 10 | 360 | 11.3 | 17.7 | 0.03 | 0.25 | 0.08 | 89 | 982.8 |
| 20260508144550 | 10 | 360 | 9.7 | 14.5 | 0.05 | 0.25 | 0.08 | 89 | 982.9 |
| 20260508143047 | 10 | 360 | 8.0 | 16.1 | 0.05 | 0.25 | 0.08 | 89 | 983.2 |
| 20260508141553 | 10 | 360 | 14.5 | 24.1 | 0.03 | 0.23 | 0.05 | 88 | 983.2 |
| 20260508140043 | 10 | 360 | 16.1 | 25.7 | 0.03 | 0.23 | 0.05 | 87 | 983.6 |
| 20260508134542 | 11 | 360 | 9.7 | 17.7 | 0.00 | 0.20 | 0.03 | 86 | 983.1 |
| 20260508133038 | 10 | 360 | 8.0 | 16.1 | 0.00 | 0.20 | 0.03 | 86 | 983.0 |
| 20260508131539 | 10 | 360 | 6.4 | 14.5 | 0.00 | 0.20 | 0.03 | 86 | 983.1 |
| 20260508130039 | 10 | 360 | 3.2 | 9.7 | 0.00 | 0.20 | 0.03 | 86 | 982.7 |
| 20260508124536 | 10 | 360 | 4.8 | 8.0 | 0.00 | 0.20 | 0.03 | 87 | 983.2 |
| 20260508123028 | 10 | 360 | 3.2 | 8.0 | 0.00 | 0.20 | 0.03 | 86 | 983.1 |
| 20260508121525 | 10 | 360 | 1.6 | 4.8 | 0.00 | 0.20 | 0.03 | 86 | 982.9 |
| 20260508120022 | 9 | 360 | 1.6 | 4.8 | 0.00 | 0.20 | 0.03 | 86 | 982.9 |
| 20260508114519 | 9 | 360 | 1.6 | 6.4 | 0.00 | 0.20 | 0.03 | 86 | 982.8 |
| 20260508113021 | 8 | 360 | 3.2 | 6.4 | 0.00 | 0.20 | 0.03 | 87 | 982.5 |
| 20260508111513 | 8 | 360 | 3.2 | 8.0 | 0.00 | 0.20 | 0.03 | 88 | 982.6 |
| 20260508110009 | 7 | 360 | 3.2 | 8.0 | 0.00 | 0.20 | 0.03 | 88 | 982.5 |
| 20260508104507 | 7 | 235 | 3.2 | 8.0 | 0.00 | 0.20 | 0.03 | 89 | 982.4 |
| 20260508103010 | 7 | 236 | 0.0 | 3.2 | 0.00 | 0.20 | 0.03 | 88 | 982.4 |
| 20260508101505 | 7 | 236 | 0.0 | 4.8 | 0.00 | 0.20 | 0.03 | 87 | 982.2 |
| 20260508100005 | 7 | 236 | 3.2 | 8.0 | 0.00 | 0.20 | 0.03 | 87 | 982.3 |
| 20260508094503 | 7 | 232 | 4.8 | 8.0 | 0.00 | 0.20 | 0.03 | 87 | 982.4 |
| 20260508093005 | 7 | 234 | 4.8 | 8.0 | 0.00 | 0.20 | 0.03 | 87 | 982.5 |
| 20260508091505 | 7 | 234 | 1.6 | 4.8 | 0.00 | 0.20 | 0.03 | 87 | 982.5 |
| 20260508090116 | 7 | 234 | 1.6 | 6.4 | 0.00 | 0.20 | 0.03 | 87 | 982.5 |
| 20260508084601 | 7 | 235 | 3.2 | 8.0 | 0.00 | 0.20 | 0.03 | 87 | 982.5 |
| 20260508083104 | 7 | 234 | 4.8 | 9.7 | 0.00 | 0.20 | 0.03 | 88 | 982.5 |
| 20260508081610 | 6 | 209 | 4.8 | 8.0 | 0.00 | 0.20 | 0.03 | 89 | 982.5 |
| 20260508080057 | 6 | 360 | 3.2 | 8.0 | 0.00 | 0.20 | 0.03 | 89 | 982.5 |
| 20260508074556 | 6 | 205 | 3.2 | 8.0 | 0.00 | 0.20 | 0.03 | 89 | 982.5 |
| 20260508073055 | 7 | 201 | 3.2 | 4.8 | 0.00 | 0.20 | 0.03 | 88 | 982.5 |
| 20260508071552 | 7 | 201 | 1.6 | 8.0 | 0.00 | 0.20 | 0.03 | 88 | 982.5 |
| 20260508070053 | 7 | 202 | 3.2 | 8.0 | 0.00 | 0.20 | 0.03 | 88 | 982.5 |
| 20260508064548 | 7 | 203 | 3.2 | 6.4 | 0.00 | 0.20 | 0.03 | 88 | 982.6 |
| 20260508063059 | 7 | 198 | 4.8 | 8.0 | 0.00 | 0.20 | 0.03 | 89 | 982.7 |
| 20260508061547 | 7 | 199 | 4.8 | 6.4 | 0.00 | 0.20 | 0.03 | 89 | 982.9 |
| 20260508060043 | 7 | 200 | 1.6 | 8.0 | 0.00 | 0.20 | 0.03 | 90 | 982.9 |
| 20260508054541 | 7 | 203 | 4.8 | 8.0 | 0.00 | 0.20 | 0.03 | 91 | 983.1 |
| 20260508053041 | 7 | 181 | 3.2 | 8.0 | 0.00 | 0.20 | 0.03 | 91 | 983.1 |
| 20260508051541 | 7 | 180 | 4.8 | 8.0 | 0.00 | 0.20 | 0.03 | 92 | 983.1 |
| 20260508050039 | 7 | 180 | 0.0 | 4.8 | 0.03 | 0.20 | 0.03 | 92 | 983.2 |
| 20260508044534 | 7 | 180 | 0.0 | 3.2 | 0.03 | 0.20 | 0.03 | 91 | 983.3 |
| 20260508043051 | 7 | 180 | 0.0 | 4.8 | 0.03 | 0.20 | 0.03 | 91 | 983.2 |
| 20260508041536 | 7 | 180 | 0.0 | 3.2 | 0.03 | 0.20 | 0.03 | 91 | 983.3 |
| 20260508040036 | 7 | 180 | 1.6 | 6.4 | 0.00 | 0.18 | 0.00 | 90 | 983.2 |
| 20260508034530 | 7 | 194 | 3.2 | 6.4 | 0.00 | 0.18 | 0.18 | 90 | 983.3 |
| 20260508033028 | 8 | 215 | 0.0 | 6.4 | 0.00 | 0.18 | 0.18 | 90 | 983.4 |
| 20260508031527 | 8 | 240 | 1.6 | 4.8 | 0.05 | 0.18 | 0.18 | 89 | 983.5 |
| 20260508030030 | 8 | 242 | 1.6 | 6.4 | 0.13 | 0.18 | 0.18 | 89 | 983.6 |
| 20260508024526 | 8 | 266 | 0.0 | 6.4 | 0.18 | 0.18 | 0.18 | 87 | 983.8 |